This demonstration page uses our WeatherBlox Daily Observations layout. Learn more.

Left ArrowRight Arrow

Hourly Observations for August 20, 2020

Temp ( °F °C ) Dew Point ( °F °C ) Humidity (%) Winds ( mph kmh ) Pressure ( in mb ) Visibility ( mi km ) Precip ( " mm )
12:15 am 00:15 Clear 56 13.5 56 13.3 99 99 Calm 30.07 1018 10 16 0.00 0.00
12:35 am 00:35 Clear 56 13.1 55 12.8 98 98 Calm 30.07 1018 10 16 0.00 0.00
12:55 am 00:55 Clear 56 13.1 55 12.9 99 99 Calm 30.08 1019 10 16 0.00 0.00
1:15 am 01:15 Clear 55 13 55 12.8 99 99 Calm 30.07 1018 10 16 0.00 0.00
1:35 am 01:35 Clear 55 12.7 55 12.5 99 99 Calm 30.07 1018 10 16 0.00 0.00
1:55 am 01:55 Clear 54 12.4 54 12.2 99 99 Calm 30.07 1018 10 16 0.00 0.00
2:15 am 02:15 Clear 54 12.2 54 12.1 99 99 Calm 30.07 1018 10 16 0.00 0.00
2:35 am 02:35 Clear 55 12.5 54 12.4 99 99 Calm 30.06 1018 10 16 0.00 0.00
2:55 am 02:55 Clear 54 12.3 54 12 98 98 Calm 30.07 1018 10 16 0.00 0.00
3:15 am 03:15 Clear 53 11.6 53 11.4 99 99 Calm 30.08 1018 10 16 0.00 0.00
3:35 am 03:35 Clear 53 11.6 53 11.6 100 100 Calm 30.08 1018 10 16 0.00 0.00
3:55 am 03:55 Clear 54 12.1 54 12 99 99 Calm 30.07 1018 10 16 0.00 0.00
4:15 am 04:15 Clear 53 11.7 53 11.5 99 99 Calm 30.07 1018 10 16 0.00 0.00
4:35 am 04:35 Clear 53 11.5 53 11.5 100 100 Calm 30.09 1019 10 16 0.00 0.00
4:55 am 04:55 Clear 53 11.5 52 11.3 99 99 Calm 30.09 1019 10 16 0.00 0.00
5:15 am 05:15 Clear 52 11.2 52 11.1 99 99 Calm 30.09 1019 10 16 0.00 0.00
5:35 am 05:35 Mostly Cloudy with Mist and Fog 52 11 52 10.9 99 99 Calm 30.08 1019 2 2 0.00 0.00
5:55 am 05:55 Mostly Cloudy with Fog 51 10.3 50 10.2 99 99 Calm 30.08 1019 1 1 0.00 0.00
6:15 am 06:15 Mostly Cloudy with Mist and Fog 51 10.7 51 10.7 100 100 Calm 30.08 1019 2 2 0.00 0.00
6:35 am 06:35 Clear with Mist and Fog 51 10.8 51 10.7 99 99 Calm 30.08 1019 5 8 0.00 0.00
6:55 am 06:55 Clear 52 11.3 52 11.3 100 100 Calm 30.09 1019 10 16 0.00 0.00
7:15 am 07:15 Sunny 51 10.6 51 10.5 99 99 Calm 30.09 1019 10 16 0.00 0.00
7:35 am 07:35 Sunny 52 11.3 52 11.3 100 100 Calm 30.09 1019 10 16 0.00 0.00
7:55 am 07:55 Sunny 54 12.3 54 12.2 99 99 Calm 30.08 1019 10 16 0.00 0.00
8:15 am 08:15 Sunny 57 13.8 56 13.5 98 98 Calm 30.08 1019 10 16 0.00 0.00
8:35 am 08:35 Sunny 60 15.4 58 14.4 94 94 Calm 30.08 1019 10 16 0.00 0.00
8:55 am 08:55 Sunny 62 16.7 59 15.1 90 90 Calm 30.08 1019 10 16 0.00 0.00
9:15 am 09:15 Sunny 64 18 58 14.7 81 81 E 3 6 30.08 1019 10 16 0.00 0.00
9:35 am 09:35 Sunny 65 18.6 59 15.2 81 81 Calm 30.08 1019 10 16 0.00 0.00
9:55 am 09:55 Sunny 67 19.2 60 15.6 80 80 Calm 30.08 1019 10 16 0.00 0.00
10:15 am 10:15 Sunny 69 20.3 61 16 76 76 Calm 30.08 1018 10 16 0.00 0.00
10:35 am 10:35 Sunny 70 21.2 60 15.7 71 71 Calm 30.07 1018 10 16 0.00 0.00
10:55 am 10:55 Sunny 71 21.8 59 15.2 66 66 Calm 30.07 1018 10 16 0.00 0.00
11:15 am 11:15 Sunny 72 22 60 15.5 67 67 Calm 30.06 1018 10 16 0.00 0.00
11:35 am 11:35 Sunny 73 22.6 58 14.2 59 59 Calm 30.06 1018 10 16 0.00 0.00
11:55 am 11:55 Sunny 73 23 59 14.8 60 60 NNE 3 6 30.05 1017 10 16 0.00 0.00
12:15 pm 12:15 Sunny 74 23.4 59 14.9 59 59 SE 6 9 30.05 1017 10 16 0.00 0.00
12:35 pm 12:35 Sunny 74 23.5 59 14.9 59 59 NNE 5 7 30.03 1017 10 16 0.00 0.00
12:55 pm 12:55 Sunny 75 23.8 59 14.9 58 58 Calm 30.02 1017 10 16 0.00 0.00
1:15 pm 13:15 Sunny 75 23.7 59 15 58 58 NE 5 7 30.02 1017 10 16 0.00 0.00
1:35 pm 13:35 Sunny 75 23.9 58 14.5 56 56 N 5 7 30.02 1017 10 16 0.00 0.00
1:55 pm 13:55 Sunny 75 24 59 14.8 57 57 NE 6 9 30.01 1016 10 16 0.00 0.00
2:15 pm 14:15 Sunny 76 24.3 58 14.7 55 55 N 5 7 30.01 1016 10 16 0.00 0.00
2:35 pm 14:35 Sunny 76 24.2 59 15.2 57 57 N 3 6 30.00 1016 10 16 0.00 0.00
2:55 pm 14:55 Sunny 76 24.4 58 14.7 55 55 Calm 29.99 1016 10 16 0.00 0.00
3:15 pm 15:15 Sunny 76 24.6 60 15.6 57 57 ENE 5 7 29.98 1015 10 16 0.00 0.00
3:35 pm 15:35 Partly Cloudy 76 24.7 61 16.1 59 59 NNE 6 9 29.98 1015 10 16 0.00 0.00
3:55 pm 15:55 Sunny 77 25.2 61 16.3 58 58 Calm 29.96 1015 10 16 0.00 0.00
4:15 pm 16:15 Partly Cloudy 77 24.8 60 15.5 56 56 NNE 6 9 29.95 1014 10 16 0.00 0.00
4:35 pm 16:35 Partly Cloudy 77 25 59 14.9 54 54 Calm 29.95 1014 10 16 0.00 0.00
4:55 pm 16:55 Partly Cloudy 77 25 60 15.3 55 55 E 5 7 29.95 1014 10 16 0.00 0.00
5:15 pm 17:15 Sunny 77 24.9 60 15.7 57 57 ENE 5 7 29.94 1014 10 16 0.00 0.00
5:35 pm 17:35 Sunny 77 25 58 14.5 52 52 ENE 3 6 29.94 1014 10 16 0.00 0.00
5:55 pm 17:55 Sunny 76 24.7 60 15.8 58 58 N 3 6 29.94 1014 10 16 0.00 0.00
6:15 pm 18:15 Sunny 76 24.6 60 15.4 57 57 NE 5 7 29.93 1014 10 16 0.00 0.00
6:35 pm 18:35 Sunny 75 24.1 61 16 61 61 NNE 5 7 29.92 1013 10 16 0.00 0.00
6:55 pm 18:55 Sunny 75 24 61 16 61 61 NNE 5 7 29.93 1014 10 16 0.00 0.00
7:15 pm 19:15 Sunny 74 23.3 61 16.3 65 65 NNE 5 7 29.94 1014 10 16 0.00 0.00
7:35 pm 19:35 Sunny 73 22.6 62 16.7 69 69 NE 3 6 29.94 1014 10 16 0.00 0.00
7:55 pm 19:55 Sunny 71 21.6 63 17.1 76 76 NNE 5 7 29.94 1014 10 16 0.00 0.00
8:15 pm 20:15 Sunny 69 20.3 63 17.2 82 82 NNE 3 6 29.95 1014 10 16 0.00 0.00
8:35 pm 20:35 Clear 66 19.1 62 16.8 87 87 Calm 29.96 1015 10 16 0.00 0.00
8:55 pm 20:55 Clear 65 18.3 61 16 87 87 Calm 29.96 1015 10 16 0.00 0.00
9:15 pm 21:15 Clear 64 17.9 61 16.1 89 89 Calm 29.96 1015 10 16 0.00 0.00
9:35 pm 21:35 Clear 64 17.5 60 15.5 88 88 NNE 3 6 29.96 1015 10 16 0.00 0.00
9:55 pm 21:55 Clear 60 15.5 58 14.7 95 95 Calm 29.98 1015 10 16 0.00 0.00
10:15 pm 22:15 Clear 61 15.9 59 15.1 95 95 Calm 29.98 1015 10 16 0.00 0.00
10:35 pm 22:35 Clear 59 15 58 14.3 96 96 Calm 29.98 1015 10 16 0.00 0.00
10:55 pm 22:55 Clear 59 15 58 14.5 97 97 Calm 29.99 1016 10 16 0.00 0.00
11:15 pm 23:15 Clear 58 14.2 56 13.6 96 96 Calm 29.99 1015 10 16 0.00 0.00
11:35 pm 23:35 Clear 56 13.6 56 13.3 98 98 Calm 29.99 1016 10 16 0.00 0.00
11:55 pm 23:55 Clear 58 14.5 57 14 97 97 Calm 29.99 1015 10 16 0.00 0.00

Powered by AerisWeather